Weather in Medyanki Tatarskie

Russia / Tyumen Oblast     58°08′39″N   68°13′09″E
temp.,
°C
wind,
m/s
gust,
m/s
humid.,
%
clouds,
%
prec.,
mm/h
press.,
hPa
HPBL,
m
20 may, fri
fri2023:00+9w7148181 0.2 999884
02:00+7wsw6128718 0.0 1000551
05:00+6wsw512855 0.0 1000768
08:00+9wsw686659 0.0 1001869
11:00+7wsw7882100 0.6 1002800
14:00+8wsw7116985 0.8 10021371
17:00+11w8144622 1.3 10022434
20:00+9w713515 0.1 10041140
21 may, sat
sat2123:00+5sw48695 0.1 1005148
02:00+4sw4972100 0.0 1005176
05:00+4sw3571100 0.0 100596
08:00+8ssw2353100 0.0 1005460
11:00+9s4465100 0.1 1004980
14:00+8ese5675100 0.0 1003673
17:00+7ene51084100 0.6 1001480
20:00+8ene61383100 0.1 997459
22 may, sun
sun2223:00+8ene5148792 0.1 995455
02:00+8ene6148999 0.1 991431
05:00+9ese51588100 0.2 990433
08:00+13s5883100 0.1 991724
11:00+13s687597 0.8 9921025
14:00+15ssw6851100 0.0 9921475
17:00+12wsw675796 0.0 9941045
20:00+9wsw610676 0.0 995888
23 may, mon
mon2323:00+6wsw5972100 0.0 9971173
02:00+5wsw71178100 0.0 999904
05:00+4ssw5119073 0.0 1001442
08:00+8ssw7106111 0.0 10021251
11:00+12ssw7104298 0.0 10032308
14:00+14s7104199 0.0 10032463
17:00+13s684692 0.0 10031859
20:00+10s4773100 0.1 1003598
24 may, tue
tue2423:00+8sse2588100 0.2 1003316
02:00+8ssw2494100 0.4 1005261
05:00+8sw249398 0.6 1007218
08:00+10sw357998 0.1 1009420
11:00+14sw455099 0.1 10101807
14:00+15ssw564872 0.0 10121770
17:00+16sw3644100 0.0 10122030
20:00+13sw116526 0.0 101310